Back to catalog

STARLINK-33891

AliveCommunicationsVLEO
NORAD 63827·PAYLOAD·🇺🇸 United States

Launched May 4, 2025 from Cape Canaveral Space Force Station

Loading…

Next Passes (next 24 hours)

TLE

FreshSource: CelesTrak SupGP

Epoch: Sep 14, 2026, 22:49 UTC

1 63827C 25092Z   26257.95118056 -.00044090  00000+0 -15967-2 0  2576
2 63827  43.0000 184.0814 0001206 265.1317 151.6421 15.27604206    19

Track STARLINK-33891 in real time with AllMySat

Download on the App Store